Location: Cedar Falls
(42.5280°N, 92.4450°W)
Time: 07:28:47
(UTC-05:00)

NOSS 3-1 (C) - Visible Passes

Search period start: 05 August 2015 00:00
Search period end: 15 August 2015 00:00
Orbit: 874 x 1335 km, 63.4° (Epoch: 01 August)

Date Brightness Start Highest point End Pass type
(mag) Time Alt. Az. Time Alt. Az. Time Alt. Az.
05 Aug 5.0 02:33:49 20° ESE 02:34:36 21° ESE 02:39:15 10° ENE visible
05 Aug 3.6 04:21:13 26° SW 04:24:46 69° NW 04:31:26 10° NNE visible
06 Aug 5.6 01:50:05 11° ESE 01:50:05 11° ESE 01:51:46 10° E visible
06 Aug 3.4 03:37:29 44° SSW 03:39:31 77° ESE 03:46:07 10° NE visible
06 Aug 5.0 05:25:57 10° W 05:31:12 27° NNW 05:36:50 10° NNE visible
07 Aug 3.9 02:53:43 45° SE 02:54:26 47° ESE 03:00:38 10° NE visible
07 Aug 4.4 04:41:07 16° W 04:45:29 37° NW 04:51:41 10° NNE visible
08 Aug 4.7 02:09:54 28° ESE 02:09:54 28° ESE 02:14:52 10° NE visible
08 Aug 3.8 03:57:18 33° WSW 03:59:56 55° NW 04:06:30 10° NNE visible
09 Aug 5.4 01:26:04 15° E 01:26:04 15° E 01:28:26 10° ENE visible
09 Aug 3.3 03:13:28 62° SW 03:14:35 84° NW 03:21:16 10° NE visible
09 Aug 5.2 05:01:40 10° W 05:06:37 23° NNW 05:11:52 10° NNE visible
10 Aug 3.6 02:29:36 62° ESE 02:29:36 62° ESE 02:35:53 10° NE visible
10 Aug 4.8 04:17:00 17° W 04:20:48 31° NW 04:26:43 10° NNE visible
11 Aug 4.5 01:45:42 34° E 01:45:42 34° E 01:50:17 10° NE visible
11 Aug 4.2 03:33:06 34° W 03:35:10 44° NW 03:41:34 10° NNE visible
11 Aug 5.6 05:24:08 10° NW 05:28:05 16° NNW 05:32:10 10° NNE visible
12 Aug 5.3 01:01:47 18° E 01:01:47 18° E 01:04:17 10° ENE visible
12 Aug 3.5 02:49:11 64° W 02:49:42 66° NW 02:56:22 10° NNE visible
12 Aug 5.5 04:37:28 10° WNW 04:42:04 20° NNW 04:46:55 10° NNE visible
13 Aug 3.6 02:05:13 69° ENE 02:05:13 69° ENE 02:11:04 10° NE visible
13 Aug 5.1 03:52:36 17° WNW 03:56:11 26° NNW 04:01:45 10° NNE visible
14 Aug 4.4 01:21:15 38° ENE 01:21:15 38° ENE 01:25:36 10° NE visible
14 Aug 4.5 03:08:38 30° WNW 03:10:27 36° NW 03:16:36 10° NNE visible
14 Aug 5.8 05:00:03 10° NW 05:03:39 15° NNW 05:07:20 10° NNE visible
